[[{"header":{"parameterUnit":"m.s-1","parameterCategory":1,"la1":30.2992,"la2":30.254,"lo1":-89.0895,"lo2":-89.0443,"dy":0.0025,"dx":0.0025,"nx":19,"ny":19,"refTime":"2026-05-14T03:00:00:Z","depth":0,"parameterNumber":2,"parameterNumberName":"U-component_of_WINDS"},"data":[0,0,0,-3.1041,-3.1042,-3.1099,-3.1099,-3.1179,-3.118,0,0,0,0,0,0,0,0,0,0,0,-3.1029,-3.1029,-3.1041,-3.1042,-3.1099,-3.1099,-3.1179,-3.118,0,0,0,0,0,0,0,0,0,0,0,-3.1028,-3.1029,-3.103,-3.1043,-3.1099,-3.1099,-3.1179,-3.1133,0,0,0,0,0,0,0,0,0,0,-3.1077,-3.107,-3.1029,-3.103,-3.1043,-3.1098,-3.1099,-3.1131,-3.1136,-3.1157,0,-3.1176,0,-3.1179,-3.1186,-3.1186,0,0,0,-3.1039,-3.1065,-3.1077,-3.103,-3.1044,-3.1098,-3.1072,-3.1134,-3.114,-3.1164,-3.1177,-3.1179,-3.118,-3.1186,-3.1187,-3.1315,-3.1315,0,0,-3.1036,-3.1041,-3.1073,-3.1081,-3.1072,-3.1071,-3.1074,-3.1137,-3.1152,-3.1177,-3.1181,-3.1182,-3.1187,-3.1187,-3.1314,-3.1315,0,0,0,-3.1029,-3.1039,-3.1049,-3.1078,-3.1087,-3.1072,-3.1076,-3.1149,-3.1152,-3.1182,-3.1183,-3.1187,-3.1188,-3.1313,-3.1314,-3.1355,0,0,0,-3.1027,-3.1035,-3.1047,-3.1051,-3.1086,-3.1119,-3.1087,-3.1147,-3.1154,-3.1182,-3.1187,-3.1189,-3.1312,-3.1314,-3.1352,-3.1373,0,0,0,-3.1023,-3.1034,-3.1044,-3.1051,-3.1075,-3.1118,-3.1124,-3.1149,-3.1155,-3.1186,-3.1189,-3.1312,-3.1314,-3.1349,-3.1368,-3.1407,0,0,0,-3.1021,-3.1079,-3.1045,-3.1111,-3.1075,-3.1143,-3.1123,-3.1174,-3.1205,-3.1188,-3.1313,-3.1314,-3.1348,-3.1366,-3.1404,-3.1439,-3.1455,0,0,-3.1097,-3.1088,-3.1127,-3.1098,-3.1173,-3.1134,-3.1215,-3.1239,-3.1238,-3.129,-3.1293,-3.1353,-3.1368,-3.1407,-3.1543,-3.1555,0,0,0,-3.1153,-3.118,-3.1199,-3.1229,-3.125,-3.1269,-3.1281,-3.129,-3.1334,-3.1265,-3.1378,-3.1387,-3.1409,-3.1426,-3.1436,-3.1455,-3.1323,-3.1322,-3.1322,-3.1266,-3.1262,-3.1326,-3.1329,-3.1359,-3.1371,-3.1395,-3.141,-3.1397,-3.1424,-3.1438,-3.1521,-3.1541,-3.1549,-3.1568,-3.1458,-3.1458,-3.1458,-3.1459,-3.1376,-3.1414,-3.1397,-3.1452,-3.1449,-3.1495,-3.1511,-3.1501,-3.1544,-3.151,-3.1529,-3.1491,-3.1562,-3.1579,-3.1462,-3.1461,-3.1461,-3.146,-3.146,-3.1448,-3.1466,-3.1477,-3.1521,-3.1556,-3.1559,-3.1601,-3.1597,-3.1592,-3.1612,-3.1627,-3.1626,-3.1624,-3.162,-3.162,-3.162,-3.1621,-3.1621,-3.1621,-3.1518,-3.153,-3.1565,-3.1594,-3.1613,-3.1638,-3.1654,-3.1673,-3.1693,-3.1686,-3.1686,-3.1671,-3.1571,-3.1544,-3.1625,-3.1625,-3.1624,-3.1624,-3.1623,-3.1629,-3.1603,-3.1659,-3.1679,-3.1712,-3.1747,-3.1742,-3.1782,-3.1797,-3.1819,-3.18,-3.1727,-3.1718,-3.171,-3.1688,-3.1801,-3.1801,-3.1801,-3.1801,-3.1688,-3.1684,-3.174,-3.1772,-3.1803,-3.1804,-3.1868,-3.1881,-3.1891,-3.1901,-3.1884,-3.1856,-3.1848,-3.1843,-3.1832,-3.1812,-3.1954,-3.1954,-3.1954,-3.1756,-3.1754,-3.1809,-3.1818,-3.1844,-3.1867,-3.1927,-3.1965,-3.1971,-3.196,-3.1908,-3.1902,-3.1856,-3.1841,-3.1826,-3.1809,-3.1771,0,0]},{"header":{"parameterUnit":"m.s-1","parameterCategory":1,"la1":30.2992,"la2":30.254,"lo1":-89.0895,"lo2":-89.0443,"dy":0.0025,"dx":0.0025,"nx":19,"ny":19,"refTime":"2026-05-14T03:00:00:Z","depth":0,"parameterNumber":3,"parameterNumberName":"V-component_of_WINDS"},"data":[0,0,0,3.5994,3.5995,3.6022,3.6022,3.6053,3.6053,0,0,0,0,0,0,0,0,0,0,0,3.5985,3.5985,3.5994,3.5995,3.6022,3.6022,3.6053,3.6053,0,0,0,0,0,0,0,0,0,0,0,3.5985,3.5985,3.5985,3.5995,3.6022,3.6022,3.6053,3.6034,0,0,0,0,0,0,0,0,0,0,3.6008,3.5998,3.5985,3.5985,3.5995,3.6022,3.6022,3.6033,3.6035,3.6039,0,3.6044,0,3.6049,3.6055,3.6055,0,0,0,3.5996,3.5996,3.6005,3.5985,3.5995,3.6022,3.601,3.6034,3.6036,3.6042,3.6044,3.6045,3.605,3.6055,3.6055,3.6081,3.6081,0,0,3.5994,3.5989,3.6003,3.6006,3.6003,3.6009,3.6011,3.6035,3.6037,3.6044,3.6046,3.605,3.6055,3.6056,3.6081,3.6081,0,0,0,3.5989,3.5987,3.5996,3.6005,3.601,3.601,3.6012,3.6036,3.6039,3.6047,3.605,3.6056,3.6056,3.6081,3.6081,3.608,0,0,0,3.5989,3.5985,3.5995,3.5992,3.601,3.6023,3.6012,3.6037,3.604,3.605,3.6056,3.6056,3.6081,3.6081,3.608,3.608,0,0,0,3.5984,3.5984,3.5988,3.5991,3.6003,3.6023,3.6028,3.6038,3.6043,3.6055,3.6056,3.6081,3.6081,3.608,3.608,3.6086,0,0,0,3.5976,3.5985,3.5987,3.5999,3.6003,3.6023,3.6028,3.6043,3.6053,3.6056,3.6081,3.6081,3.608,3.608,3.6086,3.609,3.6091,0,0,3.5984,3.5986,3.5993,3.5996,3.6014,3.6019,3.6037,3.6051,3.6057,3.6073,3.6074,3.608,3.608,3.6086,3.6099,3.61,0,0,0,3.5994,3.5999,3.6005,3.6016,3.6028,3.6039,3.6052,3.6057,3.6071,3.6064,3.6084,3.6084,3.6088,3.609,3.6091,3.6094,3.6082,3.6082,3.6082,3.5997,3.6005,3.6018,3.603,3.604,3.6054,3.6063,3.6072,3.6077,3.6081,3.6086,3.6093,3.6096,3.6096,3.61,3.6089,3.6089,3.6089,3.6089,3.601,3.6018,3.6026,3.6041,3.6049,3.6062,3.6076,3.6079,3.6091,3.609,3.6094,3.6092,3.6097,3.61,3.6089,3.6089,3.6089,3.6089,3.6089,3.6012,3.6018,3.6025,3.6042,3.6054,3.6066,3.6078,3.6085,3.6092,3.6095,3.6101,3.6101,3.6102,3.6098,3.6098,3.6098,3.6098,3.6098,3.6098,3.6012,3.602,3.603,3.6045,3.6053,3.6065,3.608,3.6088,3.6098,3.6102,3.6103,3.6107,3.6096,3.6093,3.6098,3.6098,3.6098,3.6098,3.6098,3.6021,3.6021,3.6036,3.6044,3.6063,3.6074,3.6084,3.61,3.6107,3.6113,3.6117,3.6108,3.611,3.6109,3.6107,3.6115,3.6115,3.6115,3.6115,3.6023,3.6026,3.6043,3.6057,3.607,3.6081,3.6097,3.6109,3.6121,3.6126,3.6126,3.6124,3.6123,3.6125,3.6124,3.6122,3.6134,3.6134,3.6134,3.603,3.6034,3.6047,3.606,3.6075,3.6088,3.6104,3.6118,3.6131,3.6135,3.613,3.613,3.6126,3.6124,3.6127,3.6126,3.6122,0,0]}]]